When you browse on this site, cookies collect data to enhance your experience and personalize the content and advertising you see.
Visit our Privacy Policy to learn more. By continuing to use the site, you agree to this use of cookies and data.
  • In Hungary
  • List of Countries
  • For 7 days
  • Water Temperature
  • Weather Map
  • News
  • Weather Widgets
  • user-avatar
    Login

    Hourly Weather Valno

    Today, 20 January, Monday

    Time Temperature Precipitation Wind Pressure Humidity
    00:00 -1°C° 0 mm 5 mps 744 mmHg 90%
    01:00 -1°C° 0 mm 5 mps 744 mmHg 90%
    02:00 -1°C° 0 mm 5 mps 745 mmHg 91%
    03:00 -1°C° 0 mm 5 mps 744 mmHg 90%
    04:00 -1°C° 0 mm 5 mps 744 mmHg 89%
    05:00 -1°C° 0 mm 4 mps 744 mmHg 88%
    06:00 -1°C° 0 mm 4 mps 744 mmHg 89%
    07:00 -1°C° 0 mm 4 mps 745 mmHg 90%
    08:00 -1°C° 0 mm 4 mps 745 mmHg 91%
    09:00 -1°C° 0 mm 5 mps 745 mmHg 91%
    10:00 -1°C° 0 mm 5 mps 745 mmHg 92%
    11:00 -1°C° 0 mm 5 mps 745 mmHg 92%
    12:00 -1°C° 0 mm 5 mps 745 mmHg 90%
    13:00 -1°C° 0 mm 5 mps 745 mmHg 87%
    14:00 -1°C° 0 mm 5 mps 745 mmHg 84%
    15:00 -1°C° 0 mm 5 mps 745 mmHg 83%
    16:00 -1°C° 0 mm 5 mps 744 mmHg 83%
    17:00 -1°C° 0 mm 5 mps 744 mmHg 82%
    18:00 -1°C° 0 mm 5 mps 743 mmHg 80%
    19:00 -2°C° 0 mm 5 mps 743 mmHg 79%
    20:00 -2°C° 0 mm 5 mps 742 mmHg 78%
    21:00 -2°C° 0 mm 5 mps 742 mmHg 78%
    22:00 -2°C° 0 mm 5 mps 741 mmHg 77%
    23:00 -3°C° 0 mm 6 mps 740 mmHg 77%

    Tomorrow, 21 January, Tuesday

    Time Temperature Precipitation Wind Pressure Humidity
    00:00 -3°C° 0 mm 6 mps 740 mmHg 80%
    01:00 -3°C° 0 mm 6 mps 739 mmHg 83%
    02:00 -3°C° 0 mm 6 mps 738 mmHg 85%
    03:00 -2°C° 0 mm 6 mps 737 mmHg 87%
    04:00 -2°C° 0 mm 6 mps 737 mmHg 89%
    05:00 -2°C° 0 mm 6 mps 736 mmHg 90%
    06:00 -1°C° 0.1 mm 6 mps 735 mmHg 90%
    07:00 -1°C° 0.1 mm 6 mps 735 mmHg 91%
    08:00 +1°C° 0.1 mm 6 mps 734 mmHg 91%
    09:00 +1°C° 0 mm 6 mps 734 mmHg 91%
    10:00 +2°C° 0 mm 6 mps 733 mmHg 91%
    11:00 +2°C° 0 mm 6 mps 733 mmHg 91%
    12:00 +2°C° 0 mm 6 mps 732 mmHg 90%
    13:00 +3°C° 0 mm 5 mps 732 mmHg 90%
    14:00 +3°C° 0 mm 5 mps 731 mmHg 90%
    15:00 +3°C° 0.5 mm 6 mps 730 mmHg 90%
    16:00 +3°C° 0.5 mm 6 mps 730 mmHg 89%
    17:00 +3°C° 0.5 mm 7 mps 729 mmHg 89%
    18:00 +3°C° 1 mm 7 mps 729 mmHg 88%
    19:00 +3°C° 1 mm 6 mps 729 mmHg 86%
    20:00 +2°C° 1 mm 6 mps 729 mmHg 85%
    21:00 +1°C° 0.1 mm 6 mps 730 mmHg 82%
    22:00 -1°C° 0.1 mm 6 mps 730 mmHg 79%
    23:00 -1°C° 0.1 mm 5 mps 730 mmHg 76%

    Day after tomorrow, 22 January, Wednesday

    Time Temperature Precipitation Wind Pressure Humidity
    00:00 -1°C° 0 mm 5 mps 730 mmHg 75%
    01:00 -2°C° 0 mm 5 mps 730 mmHg 75%
    02:00 -2°C° 0 mm 5 mps 730 mmHg 75%
    03:00 -2°C° 0 mm 5 mps 729 mmHg 75%
    04:00 -2°C° 0 mm 5 mps 729 mmHg 75%
    05:00 -2°C° 0 mm 5 mps 728 mmHg 75%
    06:00 -2°C° 0.1 mm 5 mps 728 mmHg 76%
    07:00 -2°C° 0.1 mm 5 mps 727 mmHg 76%
    08:00 -3°C° 0.1 mm 6 mps 727 mmHg 77%
    09:00 -3°C° 0 mm 6 mps 726 mmHg 77%
    10:00 -3°C° 0 mm 6 mps 726 mmHg 77%
    11:00 -2°C° 0 mm 5 mps 726 mmHg 77%
    12:00 -2°C° 0.5 mm 5 mps 726 mmHg 75%
    13:00 -2°C° 0.5 mm 5 mps 726 mmHg 72%
    14:00 -2°C° 0.5 mm 5 mps 726 mmHg 70%
    15:00 -4°C° 0 mm 5 mps 726 mmHg 73%
    16:00 -4°C° 0 mm 5 mps 726 mmHg 75%
    17:00 -4°C° 0 mm 4 mps 726 mmHg 78%
    18:00 -5°C° 0.1 mm 5 mps 727 mmHg 82%
    19:00 -5°C° 0.1 mm 5 mps 727 mmHg 86%
    20:00 -5°C° 0.1 mm 5 mps 728 mmHg 90%
    21:00 -5°C° 0.1 mm 5 mps 728 mmHg 87%
    22:00 -5°C° 0.1 mm 5 mps 729 mmHg 85%
    23:00 -5°C° 0.1 mm 5 mps 729 mmHg 82%

    23 January, Thursday

    Time Temperature Precipitation Wind Pressure Humidity
    00:00 -6°C° 0.1 mm 5 mps 730 mmHg 77%
    01:00 -7°C° 0.1 mm 5 mps 731 mmHg 72%
    02:00 -8°C° 0.1 mm 6 mps 731 mmHg 67%
    03:00 -9°C° 0 mm 6 mps 732 mmHg 64%
    04:00 -8°C° 0 mm 5 mps 732 mmHg 62%
    05:00 -8°C° 0 mm 5 mps 733 mmHg 59%
    06:00 -8°C° 0 mm 5 mps 733 mmHg 58%
    07:00 -8°C° 0 mm 5 mps 734 mmHg 57%
    08:00 -8°C° 0 mm 5 mps 734 mmHg 55%
    09:00 -7°C° 0 mm 5 mps 734 mmHg 58%
    10:00 -8°C° 0 mm 6 mps 735 mmHg 60%
    11:00 -6°C° 0 mm 6 mps 735 mmHg 63%
    12:00 -6°C° 0 mm 6 mps 735 mmHg 62%
    13:00 -6°C° 0 mm 6 mps 736 mmHg 61%
    14:00 -6°C° 0 mm 6 mps 736 mmHg 60%
    15:00 -6°C° 0 mm 5 mps 736 mmHg 62%
    16:00 -5°C° 0 mm 4 mps 736 mmHg 65%
    17:00 -6°C° 0 mm 3 mps 736 mmHg 67%
    18:00 -6°C° 0 mm 3 mps 736 mmHg 69%
    19:00 -6°C° 0 mm 3 mps 736 mmHg 71%
    20:00 -6°C° 0 mm 3 mps 736 mmHg 74%
    21:00 -6°C° 0 mm 3 mps 736 mmHg 73%
    22:00 -5°C° 0 mm 3 mps 736 mmHg 73%
    23:00 -5°C° 0 mm 3 mps 735 mmHg 73%

    24 January, Friday

    Time Temperature Precipitation Wind Pressure Humidity
    00:00 -5°C° 0.4 mm 4 mps 734 mmHg 80%
    01:00 -6°C° 0.4 mm 5 mps 733 mmHg 87%
    02:00 -6°C° 0.4 mm 5 mps 732 mmHg 93%
    03:00 -5°C° 0.7 mm 5 mps 731 mmHg 94%
    04:00 -5°C° 0.7 mm 5 mps 729 mmHg 94%
    05:00 -4°C° 0.7 mm 5 mps 728 mmHg 95%
    06:00 -2°C° 0.8 mm 5 mps 728 mmHg 94%
    07:00 -1°C° 0.8 mm 5 mps 727 mmHg 94%
    08:00 +1°C° 0.8 mm 5 mps 727 mmHg 94%
    09:00 +1°C° 0.1 mm 5 mps 727 mmHg 92%
    10:00 +1°C° 0.1 mm 5 mps 727 mmHg 91%
    11:00 +1°C° 0.1 mm 6 mps 727 mmHg 89%
    12:00 +1°C° 0 mm 5 mps 728 mmHg 84%
    13:00 0°C° 0 mm 5 mps 728 mmHg 78%
    14:00 0°C° 0 mm 5 mps 728 mmHg 73%
    15:00 -1°C° 0 mm 5 mps 729 mmHg 73%
    16:00 -2°C° 0 mm 5 mps 729 mmHg 73%
    17:00 -3°C° 0 mm 4 mps 730 mmHg 72%
    18:00 -3°C° 0 mm 4 mps 730 mmHg 75%
    19:00 -4°C° 0 mm 4 mps 730 mmHg 77%
    20:00 -4°C° 0 mm 4 mps 730 mmHg 79%
    21:00 -4°C° 0 mm 4 mps 730 mmHg 81%
    22:00 -4°C° 0 mm 3 mps 730 mmHg 83%
    23:00 -4°C° 0 mm 3 mps 730 mmHg 85%

    25 January, Saturday

    Time Temperature Precipitation Wind Pressure Humidity
    00:00 -4°C° 0 mm 3 mps 730 mmHg 88%
    01:00 -3°C° 0 mm 2 mps 730 mmHg 91%
    02:00 -3°C° 0 mm 2 mps 730 mmHg 94%
    03:00 -2°C° 0 mm 2 mps 730 mmHg 95%
    04:00 -2°C° 0 mm 2 mps 730 mmHg 96%
    05:00 -1°C° 0 mm 2 mps 731 mmHg 97%
    06:00 -1°C° 0 mm 2 mps 731 mmHg 97%
    07:00 0°C° 0 mm 3 mps 731 mmHg 97%
    08:00 0°C° 0 mm 3 mps 731 mmHg 97%
    09:00 0°C° 0 mm 3 mps 731 mmHg 96%
    10:00 +1°C° 0 mm 3 mps 731 mmHg 96%
    11:00 +1°C° 0 mm 3 mps 731 mmHg 95%
    12:00 +1°C° 0 mm 3 mps 731 mmHg 94%
    13:00 +1°C° 0 mm 3 mps 731 mmHg 93%
    14:00 +1°C° 0 mm 3 mps 731 mmHg 92%
    15:00 +1°C° 0 mm 3 mps 731 mmHg 94%
    16:00 +1°C° 0 mm 3 mps 731 mmHg 95%
    17:00 +1°C° 0 mm 3 mps 731 mmHg 96%
    18:00 +1°C° 0.1 mm 3 mps 731 mmHg 96%
    19:00 +1°C° 0.1 mm 3 mps 731 mmHg 96%
    20:00 +1°C° 0.1 mm 3 mps 731 mmHg 96%
    21:00 +1°C° 0.1 mm 3 mps 731 mmHg 96%
    22:00 +1°C° 0.1 mm 3 mps 731 mmHg 96%
    23:00 +2°C° 0.1 mm 3 mps 731 mmHg 96%
    Show more